Charleston, WV

10:48 PM EDT on August 24, 2019 (GMT -0400)
Yeager Airport

Weather History for KCRW - July, 2019

Change the Weather History Date:

Tuesday, July 16, 2019

  Actual Average Record
Temperature  
Mean Temperature 82 °F 76 °F  
Max Temperature 94 °F 85 °F 104 °F (1988)
Min Temperature 70 °F 66 °F 51 °F (1945)
Degree Days  
Heating Degree Days 0 0  
Month to date heating degree days 0 0  
Since 1 June heating degree days 7 13  
Since 1 July heating degree days 0 0  
Cooling Degree Days 17 11  
Month to date cooling degree days 240 169  
Year to date cooling degree days 638 499  
Since 1 June cooling degree days 442 389  
Growing Degree Days 32 (Base 50)    
Moisture  
Dew Point 68 °F    
Average Humidity 66    
Maximum Humidity 90    
Minimum Humidity 41    
Precipitation  
Precipitation 0.00 in 0.17 in 1.81 in (1976)
Month to date precipitation 0.76 2.49  
Year to date precipitation 27.10 24.92  
Sea Level Pressure  
Sea Level Pressure 30.06 in    
Wind  
Wind Speed 3 mph (South)    
Max Wind Speed 13 mph    
Max Gust Speed 17 mph    
Visibility 10 miles    
Events      
T = Trace of Precipitation, MM = Missing Value Source: NWS Daily Summary

Daily Weather History Graph

Daily Weather History Graph

Search for Another Location

Airport or City:

Astronomy

Jul. 16, 2019 Rise Set
Actual Time 6:15 AM EDT 8:49 PM EDT
Civil Twilight 5:44 AM EDT 9:19 PM EDT
Nautical Twilight 5:06 AM EDT 9:57 PM EDT
Astronomical Twilight 4:23 AM EDT 10:40 PM EDT
Moon 8:54 PM EDT (7/16) 5:52 AM EDT (7/16)
Length of Visible Light 15h 35m
Length of Day
14h 33m
Full, 100% of the Moon is Illuminated
Jul 16
Full
Jul 16
Full
Jul 24
Last Quarter
Jul 31
New
Aug 7
First Quarter

Hourly Weather History & Observations

Time (EDT) Temp. Heat Index Dew Point Humidity Pressure Visibility Wind Dir Wind Speed Gust Speed Precip Events Conditions
12:54 AM 73.9 °F - 66.9 °F 79% 30.09 in 10.0 mi Calm Calm - N/A   Scattered Clouds
1:54 AM 71.1 °F - 66.9 °F 87% 30.09 in 10.0 mi SSE 3.5 mph - N/A   Scattered Clouds
2:54 AM 72.0 °F - 66.9 °F 84% 30.09 in 10.0 mi Calm Calm - N/A   Clear
3:54 AM 71.1 °F - 68.0 °F 90% 30.08 in 10.0 mi Calm Calm - N/A   Scattered Clouds
4:54 AM 71.1 °F - 66.9 °F 87% 30.08 in 10.0 mi Calm Calm - N/A   Mostly Cloudy
5:54 AM 70.0 °F - 66.9 °F 90% 30.09 in 10.0 mi Calm Calm - N/A   Mostly Cloudy
6:54 AM 71.1 °F - 68.0 °F 90% 30.10 in 10.0 mi Calm Calm - N/A   Mostly Cloudy
7:54 AM 72.0 °F - 68.0 °F 87% 30.10 in 10.0 mi Calm Calm - N/A   Clear
8:54 AM 75.9 °F - 69.1 °F 79% 30.11 in 10.0 mi South 3.5 mph - N/A   Mostly Cloudy
9:54 AM 80.1 °F 83.2 °F 70.0 °F 71% 30.11 in 10.0 mi Calm Calm - N/A   Overcast
10:54 AM 82.0 °F 86.3 °F 71.1 °F 69% 30.11 in 10.0 mi Calm Calm - N/A   Overcast
11:54 AM 84.9 °F 89.4 °F 70.0 °F 61% 30.11 in 10.0 mi South 3.5 mph - N/A   Overcast
12:54 PM 86.0 °F 89.4 °F 68.0 °F 55% 30.10 in 10.0 mi SSW 5.8 mph - N/A   Overcast
1:54 PM 89.1 °F 92.9 °F 68.0 °F 50% 30.08 in 10.0 mi Variable 4.6 mph - N/A   Scattered Clouds
2:54 PM 91.0 °F 93.0 °F 64.9 °F 42% 30.06 in 10.0 mi SSE 9.2 mph - N/A   Scattered Clouds
3:54 PM 91.9 °F 94.1 °F 64.9 °F 41% 30.03 in 10.0 mi SSW 9.2 mph - N/A   Scattered Clouds
4:54 PM 91.9 °F 94.5 °F 66.0 °F 42% 30.01 in 10.0 mi South 9.2 mph - N/A   Scattered Clouds
5:54 PM 91.0 °F 94.3 °F 66.9 °F 45% 29.99 in 10.0 mi South 9.2 mph - N/A   Scattered Clouds
6:54 PM 91.0 °F 93.8 °F 66.0 °F 44% 29.99 in 10.0 mi SSW 6.9 mph - N/A   Scattered Clouds
7:54 PM 89.1 °F 91.3 °F 66.0 °F 46% 29.99 in 10.0 mi SSW 8.1 mph - N/A   Clear
8:54 PM 84.0 °F 87.0 °F 68.0 °F 58% 29.99 in 10.0 mi Calm Calm - N/A   Scattered Clouds
9:54 PM 79.0 °F - 69.1 °F 72% 30.01 in 10.0 mi SSE 3.5 mph - N/A   Partly Cloudy
10:54 PM 77.0 °F - 70.0 °F 79% 30.01 in 10.0 mi Calm Calm - N/A   Partly Cloudy
11:54 PM 75.9 °F - 71.1 °F 85% 30.02 in 10.0 mi Calm Calm - N/A   Scattered Clouds